Location: Crescent
(42.8242°N, 73.7329°W)
Time: 03:40:20
(UTC+00:00)

Tiros 1 - Pass Details

Date: 16 February 2026
Orbit: 618 x 649 km, 48.4° (Epoch: 7 March)

Event Time Altitude Azimuth Distance (km) Brightness Sun altitude
Rises 17:34:24 0° 289° (WNW) 2,896 10.4 34.7°
Reaches altitude 10° 17:36:49 10° 296° (WNW) 1,986 9.6 34.7°
Maximum altitude 17:41:11 44° 9° (N) 861 7.7 34.5°
Drops below altitude 10° 17:45:32 10° 82° (E) 1,979 9.6 34.4°
Sets 17:47:56 0° 89° (E) 2,884 10.4 34.3°
